Date String (YYYY-MM-DD hh:mm:ss) UTC,Instrument flags,absolute air pressure of the measurement (hPa),sample flow rate (lpm),inlet stack bypass flow (lpm),air temperature of the measurement (°C),ambient temperature measured by the external sensor (°C),aerosol sample conditioner tube jacket temperature (°C),OPC LED temperature (°C),internal box temperature (°C),relative humidity of the measurement (%),span deviation,mass concentration of particles derived from Lorenz-Mie calculation of OPC scattering (μg/m³),mass concentration of particles derived from Lorenz-Mie calculation of OPC scattering (μg/m³),mass concentration of particles derived from Lorenz-Mie calculation of OPC scattering (μg/m³)
DateTimeUTC,F1_M11,P_M11,Q1_M11,Q2_M11,T1_M11,T2_M11,T3_M11,T4_M11,T5_M11,U1_M11,ZSPAN_M11,X0_M11,X2_M11,X1_M11
2024-04-02 00:00:00,SystemResetWarning,0823.7,5.00,000.00,021.6,020.8,000.0,030.2,023.4,24.4,0000.0,0002.15,0001.35,0000.96
2024-04-02 00:01:00,SystemResetWarning,0823.7,5.00,000.00,021.6,020.8,000.0,030.2,023.4,24.5,0000.0,0002.24,0001.35,0000.96
2024-04-02 00:02:00,SystemResetWarning,0823.7,5.00,000.00,021.6,020.8,000.0,030.2,023.4,24.6,0000.0,0002.21,0001.31,0000.96
2024-04-02 00:03:00,SystemResetWarning,0823.7,5.01,000.00,021.6,020.8,000.0,030.2,023.4,25.2,0000.0,0002.16,0001.30,0000.97
2024-04-02 00:04:00,SystemResetWarning,0823.7,5.00,000.00,021.6,020.8,000.0,030.2,023.4,25.0,0000.0,0002.19,0001.34,0000.99
2024-04-02 00:05:00,SystemResetWarning,0823.7,5.00,000.00,021.6,020.8,000.0,030.2,023.5,24.5,0000.0,0002.19,0001.36,0001.02
2024-04-02 00:06:00,SystemResetWarning,0823.7,5.00,000.00,021.6,020.8,000.0,030.2,023.4,24.5,0000.0,0002.20,0001.36,0001.03
2024-04-02 00:07:00,SystemResetWarning,0823.8,4.99,000.00,021.6,020.8,000.0,030.2,023.4,24.6,0000.0,0002.22,0001.36,0001.04
2024-04-02 00:08:00,SystemResetWarning,0823.8,4.99,000.00,021.6,020.8,000.0,030.2,023.4,24.6,0000.0,0002.29,0001.37,0001.04
2024-04-02 00:09:00,SystemResetWarning,0823.8,5.00,000.00,021.6,020.8,000.0,030.2,023.4,24.7,0000.0,0002.25,0001.35,0001.03
2024-04-02 00:10:00,SystemResetWarning,0823.8,5.01,000.00,021.6,020.9,000.0,030.2,023.4,24.7,0000.0,0002.19,0001.35,0001.03
2024-04-02 00:11:00,SystemResetWarning,0823.9,5.00,000.00,021.6,020.9,000.0,030.2,023.4,24.8,0000.0,0002.22,0001.35,0001.02
2024-04-02 00:12:00,SystemResetWarning,0824.0,5.00,000.00,021.6,020.9,000.0,030.2,023.4,24.8,0000.0,0002.13,0001.34,0001.01
2024-04-02 00:13:00,SystemResetWarning,0824.0,5.00,000.00,021.6,020.9,000.0,030.2,023.4,24.8,0000.0,0002.63,0001.34,0001.01
2024-04-02 00:14:00,SystemResetWarning,0824.0,5.00,000.00,021.6,020.9,000.0,030.2,023.4,24.9,0000.0,0002.78,0001.34,0001.01
2024-04-02 00:15:00,SystemResetWarning,0824.0,5.00,000.00,021.6,020.8,000.0,030.2,023.4,24.9,0000.0,0002.86,0001.33,0001.00
2024-04-02 00:16:00,SystemResetWarning,0824.0,5.00,000.00,021.6,020.9,000.0,030.2,023.4,24.8,0000.0,0002.85,0001.31,0000.98
2024-04-02 00:17:00,SystemResetWarning,0824.0,4.99,000.00,021.6,020.9,000.0,030.2,023.4,24.9,0000.0,0003.21,0001.33,0000.97
2024-04-02 00:18:00,SystemResetWarning,0824.0,5.00,000.00,021.6,020.9,000.0,030.2,023.4,25.0,0000.0,0004.35,0001.34,0000.95
2024-04-02 00:19:00,SystemResetWarning,0824.0,5.00,000.00,021.6,020.9,000.0,030.2,023.4,25.0,0000.0,0004.37,0001.34,0000.95
2024-04-02 00:20:00,SystemResetWarning,0824.1,5.00,000.00,021.6,020.9,000.0,030.2,023.4,24.9,0000.0,0004.40,0001.35,0000.94
2024-04-02 00:21:00,SystemResetWarning,0824.2,5.00,000.00,021.6,020.9,000.0,030.2,023.4,25.0,0000.0,0004.49,0001.36,0000.93
2024-04-02 00:22:00,SystemResetWarning,0824.2,5.00,000.00,021.6,020.9,000.0,030.2,023.4,25.0,0000.0,0004.66,0001.40,0000.94
2024-04-02 00:23:00,SystemResetWarning,0824.2,5.00,000.00,021.6,020.9,000.0,030.1,023.4,25.0,0000.0,0004.73,0001.44,0000.94
2024-04-02 00:24:00,SystemResetWarning,0824.2,5.00,000.00,021.6,020.9,000.0,030.1,023.4,25.0,0000.0,0004.40,0001.47,0000.93
2024-04-02 00:25:00,SystemResetWarning,0824.2,5.00,000.00,021.5,020.8,000.0,030.1,023.4,25.2,0000.0,0004.31,0001.52,0000.93
2024-04-02 00:26:00,SystemResetWarning,0824.2,5.01,000.00,021.5,020.8,000.0,030.1,023.4,25.3,0000.0,0004.46,0001.58,0000.94
2024-04-02 00:27:00,SystemResetWarning,0824.2,5.01,000.00,021.5,020.8,000.0,030.1,023.4,25.4,0000.0,0004.62,0001.62,0000.95
2024-04-02 00:28:00,SystemResetWarning,0824.2,5.01,000.00,021.5,020.8,000.0,030.1,023.4,25.4,0000.0,0004.44,0001.61,0000.95
2024-04-02 00:29:00,SystemResetWarning,0824.1,5.01,000.00,021.5,020.8,000.0,030.1,023.3,25.4,0000.0,0003.19,0001.60,0000.97
2024-04-02 00:30:00,SystemResetWarning,0824.2,4.99,000.00,021.5,020.8,000.0,030.1,023.3,25.5,0000.0,0003.07,0001.59,0000.97
2024-04-02 00:31:00,SystemResetWarning,0824.2,4.99,000.00,021.5,020.8,000.0,030.1,023.3,25.5,0000.0,0003.03,0001.59,0000.98
2024-04-02 00:32:00,SystemResetWarning,0824.3,5.00,000.00,021.5,020.8,000.0,030.1,023.3,25.4,0000.0,0002.92,0001.57,0000.98
2024-04-02 00:33:00,SystemResetWarning,0824.3,5.00,000.00,021.5,020.8,000.0,030.1,023.3,25.3,0000.0,0002.71,0001.54,0000.98
2024-04-02 00:34:00,SystemResetWarning,0824.3,5.00,000.00,021.5,020.8,000.0,030.1,023.3,25.3,0000.0,0002.65,0001.52,0000.99
2024-04-02 00:35:00,SystemResetWarning,0824.3,5.00,000.00,021.5,020.8,000.0,030.1,023.3,25.4,0000.0,0002.54,0001.48,0000.99
2024-04-02 00:36:00,SystemResetWarning,0824.4,5.01,000.00,021.5,020.7,000.0,030.1,023.3,25.5,0000.0,0002.34,0001.44,0001.00
2024-04-02 00:37:00,SystemResetWarning,0824.4,5.00,000.00,021.5,020.7,000.0,030.1,023.3,25.8,0000.0,0002.35,0001.42,0001.01
2024-04-02 00:38:00,SystemResetWarning,0824.4,5.01,000.00,021.5,020.7,000.0,030.1,023.3,25.6,0000.0,0002.35,0001.39,0001.02
2024-04-02 00:39:00,SystemResetWarning,0824.3,4.99,000.00,021.5,020.7,000.0,030.1,023.3,25.6,0000.0,0002.33,0001.40,0001.03
2024-04-02 00:40:00,SystemResetWarning,0824.4,4.99,000.00,021.4,020.7,000.0,030.1,023.3,25.7,0000.0,0002.49,0001.42,0001.04
2024-04-02 00:41:00,SystemResetWarning,0824.4,5.00,000.00,021.4,020.7,000.0,030.1,023.3,25.5,0000.0,0002.73,0001.44,0001.06
2024-04-02 00:42:00,SystemResetWarning,0824.4,5.01,000.00,021.4,020.7,000.0,030.1,023.3,25.6,0000.0,0003.02,0001.46,0001.08
2024-04-02 00:43:00,SystemResetWarning,0824.4,5.02,000.00,021.4,020.8,000.0,030.1,023.3,25.7,0000.0,0003.02,0001.45,0001.09
2024-04-02 00:44:00,SystemResetWarning,0824.4,4.99,000.00,021.5,020.7,000.0,030.1,023.3,25.7,0000.0,0003.04,0001.46,0001.10
2024-04-02 00:45:00,SystemResetWarning,0824.4,4.99,000.00,021.4,020.7,000.0,030.1,023.3,25.9,0000.0,0003.08,0001.48,0001.12
2024-04-02 00:46:00,SystemResetWarning,0824.4,5.01,000.00,021.4,020.7,000.0,030.1,023.3,25.9,0000.0,0003.11,0001.52,0001.18
2024-04-02 00:47:00,SystemResetWarning,0824.4,5.02,000.00,021.4,020.7,000.0,030.1,023.3,25.8,0000.0,0003.13,0001.53,0001.22
2024-04-02 00:48:00,SystemResetWarning,0824.5,5.00,000.00,021.4,020.7,000.0,030.0,023.3,26.0,0000.0,0003.01,0001.54,0001.25
2024-04-02 00:49:00,SystemResetWarning,0824.6,4.99,000.00,021.4,020.7,000.0,030.0,023.3,25.9,0000.0,0002.81,0001.57,0001.28
2024-04-02 00:50:00,SystemResetWarning,0824.6,4.99,000.00,021.4,020.7,000.0,030.0,023.3,26.0,0000.0,0002.84,0001.61,0001.33
2024-04-02 00:51:00,SystemResetWarning,0824.6,5.01,000.00,021.4,020.7,000.0,030.0,023.3,26.1,0000.0,0002.74,0001.66,0001.39
2024-04-02 00:52:00,SystemResetWarning,0824.7,5.01,000.00,021.4,020.6,000.0,030.0,023.3,26.1,0000.0,0002.61,0001.71,0001.44
2024-04-02 00:53:00,SystemResetWarning,0824.7,4.99,000.00,021.4,020.6,000.0,030.0,023.2,25.8,0000.0,0002.49,0001.80,0001.50
2024-04-02 00:54:00,SystemResetWarning,0824.7,4.99,000.00,021.4,020.6,000.0,030.0,023.2,25.8,0000.0,0002.54,0001.86,0001.56
2024-04-02 00:55:00,SystemResetWarning,0824.7,4.99,000.00,021.4,020.6,000.0,030.0,023.2,25.7,0000.0,0002.63,0001.92,0001.61
2024-04-02 00:56:00,SystemResetWarning,0824.7,5.00,000.00,021.4,020.6,000.0,030.0,023.2,25.5,0000.0,0002.66,0001.95,0001.65
2024-04-02 00:57:00,SystemResetWarning,0824.7,5.00,000.00,021.4,020.5,000.0,030.0,023.2,25.5,0000.0,0003.64,0001.96,0001.66
2024-04-02 00:58:00,SystemResetWarning,0824.7,5.00,000.00,021.4,020.5,000.0,030.0,023.2,25.5,0000.0,0003.67,0002.00,0001.67
2024-04-02 00:59:00,SystemResetWarning,0824.6,5.01,000.00,021.4,020.5,000.0,030.0,023.2,25.4,0000.0,0003.68,0002.04,0001.71
